This is the latest recevied weather packets stored in our database for station/object TA3MHA. If no packets are shown the sender has not sent any weather packets the latest 10 day(s).
| Time | Temp. | Humidity | Pressure | Rain* | Wind** | Luminosity | Snow |
|---|---|---|---|---|---|---|---|
| 1777556700 | 21.67° C | 51% | - | 0 mm | - | 429 W/m² | - |
| 1777556401 | 21.67° C | 49% | - | 0 mm | - | 456 W/m² | - |
| 1777556101 | 22.22° C | 49% | - | 0 mm | - | 467 W/m² | - |
| 1777555800 | 21.67° C | 47% | - | 0 mm | - | 502 W/m² | - |
| 1777555500 | 21.67° C | 47% | - | 0 mm | - | 538 W/m² | - |
| 1777555201 | 21.11° C | 47% | - | 0 mm | - | 166 W/m² | - |
| 1777554900 | 21.67° C | 46% | - | 0 mm | - | 128 W/m² | - |
| 1777554600 | 22.22° C | 45% | - | 0 mm | - | 157 W/m² | - |
| 1777554300 | 22.22° C | 45% | - | 0 mm | - | 579 W/m² | - |
| 1777554001 | 22.22° C | 46% | - | 0 mm | - | 603 W/m² | - |
| 1777553701 | 22.22° C | 44% | - | 0 mm | - | 625 W/m² | - |
| 1777553400 | 21.67° C | 45% | - | 0 mm | - | 583 W/m² | - |
| 1777553100 | 22.22° C | 47% | - | 0 mm | - | 340 W/m² | - |
| 1777552800 | 21.67° C | 48% | - | 0 mm | - | 627 W/m² | - |
| 1777552501 | 21.67° C | 48% | - | 0 mm | - | 430 W/m² | - |
| 1777552200 | 21.67° C | 47% | - | 0 mm | - | 524 W/m² | - |
| 1777551900 | 22.22° C | 46% | - | 0 mm | - | 366 W/m² | - |
| 1777551601 | 22.78° C | 44% | - | 0 mm | - | 699 W/m² | - |
| 1777551300 | 21.67° C | 46% | - | 0 mm | - | 724 W/m² | - |
| 1777551000 | 22.78° C | 44% | - | 0 mm | - | 385 W/m² | - |
| 1777550701 | 22.22° C | 45% | - | 0 mm | - | 726 W/m² | - |
| 1777550401 | 21.67° C | 46% | - | 0 mm | - | 728 W/m² | - |
| 1777550100 | 21.67° C | 47% | - | 0 mm | - | 737 W/m² | - |
| 1777549800 | 21.67° C | 47% | - | 0 mm | - | 748 W/m² | - |
| 1777549500 | 22.22° C | 45% | - | 0 mm | - | 767 W/m² | - |
* Rain latest hour (hover to see other rain measurements)
** Current wind speed in m/s (hover to see current wind gust speed)